Regional Weather Roundup
Issued by NWS

Home | Current Version | Previous Version | Text Only | Print | Product List | Glossary Off
Versions: 1 2 3 4 5 6 7 8 9 10 11 12 13 14 15 16 17 18 19 20 21 22 23 24 25 26 27 28 29 30 31 32 33 34 35 36 37 38 39 40 41 42 43 44 45 46 47 48 49 50

000
ASUS43 KLSX 260410
RWRMO

WEATHER SUMMARY FOR MISSOURI
NATIONAL WEATHER SERVICE SPRINGFIELD MO
1100 PM CDT SAT MAR 25 2017

NOTE: "FAIR" INDICATES FEW OR NO CLOUDS BELOW 12,000 FEET WITH NO
       SIGNIFICANT WEATHER AND/OR OBSTRUCTIONS TO VISIBILITY.
       CURRENT SKY AND/OR WEATHER CONDITIONS ARE NOT AVAILABLE FOR
       CHILLICOTHE AND FARMINGTON.

MOZ001>031-035>038-043-044-053-054-260500-
...NORTHERN AND WESTERN MISSOURI...

CITY           SKY/WX    TMP DP  RH WIND       PRES   REMARKS
KANSAS CTY INT CLOUDY    45  44  97 NW6       29.89S
KANSAS C DTWN  CLOUDY    48  44  86 NW6       29.89S
LEE`S SUMMIT   CLOUDY    47  45  93 NW9       29.88S
ST JOSEPH      CLOUDY    44  44 100 N9        29.91S
CHILLICOTHE      N/A     46  45  96 N8        29.88S
KIRKSVILLE     LGT RAIN  48  47  96 NW7       29.83S FOG

$$
MOZ066>068-077>081-088>096-101>105-260500-
...SOUTHWEST MISSOURI...

CITY           SKY/WX    TMP DP  RH WIND       PRES   REMARKS
SPRINGFIELD    CLOUDY    47  43  86 SW9       29.90S
JOPLIN         CLOUDY    47  44  90 SW12      29.93S

$$
MOZ032>034-039>042-045>050-055>058-069>072-260500-
...CENTRAL MISSOURI...

CITY           SKY/WX    TMP DP  RH WIND       PRES   REMARKS
COLUMBIA       CLOUDY    51  50  96 SW12      29.83S
JEFFERSON CITY CLOUDY    53  48  83 SW10      29.85S
ROLLA          CLOUDY    49  47  93 SW8       29.87R
SEDALIA        LGT RAIN  51  32  48 W8        29.87R
WHITEMAN AFB   CLOUDY    50  50 100 N10       29.85F
WARRENSBURG    CLOUDY    50  45  81 NW9       29.87S
OSAGE BEACH    CLOUDY   N/A N/A N/A SW7       29.88S

$$
MOZ051-052-059>065-260500-
...EAST CENTRAL MISSOURI...

CITY           SKY/WX    TMP DP  RH WIND       PRES   REMARKS
ST LOUIS INTL  MOCLDY    58  53  84 S8        29.85S
SPIRIT OF STL  CLOUDY    56  53  90 SW9       29.84R
ST CHARLES     MOCLDY    54  53  97 S8        29.84R

$$
MOZ072>076-082>087-097>100-106>115-260500-
...SOUTH CENTRAL AND SOUTHEAST MISSOURI...

CITY           SKY/WX    TMP DP  RH WIND       PRES   REMARKS
CAPE GIRARDEAU PTCLDY    57  54  89 S8        29.89S
FARMINGTON     CLOUDY    55  51  86 S5        29.88S
POPLAR BLUFF   MOCLDY    57  51  80 SW5       29.90S
WEST PLAINS    CLOUDY    50  47  89 W6        29.92S

$$



USA.gov is the U.S. government's official web portal to all federal, state and local government web resources and services.